TimePDT,TemperatureF,Dew PointF,Humidity,Sea Level PressureIn,VisibilityMPH,Wind Direction,Wind SpeedMPH,Gust SpeedMPH,PrecipitationIn,Events,Conditions,WindDirDegrees,DateUTC
12:52 AM,55.9,32.0,40,29.77,-9999.0,SE,3.5,-,N/A,,Unknown,140,2013-08-24 07:52:00
1:52 AM,55.0,34.0,45,29.77,-9999.0,SSE,6.9,-,N/A,,Unknown,160,2013-08-24 08:52:00
2:52 AM,54.0,35.1,49,29.78,-9999.0,SSE,4.6,-,N/A,,Unknown,160,2013-08-24 09:52:00
3:52 AM,55.9,37.0,49,29.77,-9999.0,SSE,6.9,-,N/A,,Unknown,150,2013-08-24 10:52:00
4:52 AM,50.0,34.0,54,29.78,-9999.0,SSW,5.8,-,N/A,,Unknown,200,2013-08-24 11:52:00
5:52 AM,50.0,32.0,50,29.78,-9999.0,South,5.8,-,N/A,,Unknown,170,2013-08-24 12:52:00
6:52 AM,52.0,32.0,47,29.80,-9999.0,South,4.6,-,N/A,,Unknown,170,2013-08-24 13:52:00
7:52 AM,62.1,36.0,38,29.80,-9999.0,SW,3.5,-,N/A,,Unknown,220,2013-08-24 14:52:00
8:52 AM,64.9,37.0,36,29.81,-9999.0,Calm,Calm,-,N/A,,Unknown,0,2013-08-24 15:52:00
9:52 AM,72.0,41.0,33,29.80,-9999.0,Variable,4.6,-,N/A,,Unknown,0,2013-08-24 16:52:00
10:52 AM,75.0,37.9,26,29.80,-9999.0,Calm,Calm,-,N/A,,Unknown,0,2013-08-24 17:52:00
11:52 AM,79.0,33.1,19,29.79,-9999.0,Calm,Calm,-,N/A,,Unknown,0,2013-08-24 18:52:00
12:52 PM,82.9,32.0,16,29.76,-9999.0,Variable,5.8,-,N/A,,Unknown,0,2013-08-24 19:52:00
1:52 PM,86.0,30.9,14,29.74,-9999.0,Calm,Calm,-,N/A,,Unknown,0,2013-08-24 20:52:00
2:52 PM,88.0,30.0,12,29.72,-9999.0,Variable,3.5,-,N/A,,Unknown,0,2013-08-24 21:52:00
3:52 PM,90.0,24.1,9,29.68,-9999.0,South,16.1,21.9,N/A,,Unknown,190,2013-08-24 22:52:00
3:56 PM,89.6,24.8,10,29.80,-9999.0,South,17.3,23.0,N/A,,Unknown,190,2013-08-24 22:56:00
4:52 PM,89.1,19.9,8,29.69,-9999.0,South,12.7,24.2,N/A,,Unknown,180,2013-08-24 23:52:00
5:52 PM,87.1,19.9,8,29.69,-9999.0,SSW,20.7,26.5,N/A,,Unknown,200,2013-08-25 00:52:00
6:52 PM,82.9,19.9,10,29.71,-9999.0,SSW,17.3,-,N/A,,Unknown,210,2013-08-25 01:52:00
7:52 PM,75.9,18.0,11,29.73,-9999.0,SSE,10.4,-,N/A,,Unknown,160,2013-08-25 02:52:00
8:52 PM,71.1,19.9,14,29.75,-9999.0,SSE,10.4,-,N/A,,Unknown,160,2013-08-25 03:52:00
9:52 PM,70.0,19.0,14,29.75,-9999.0,South,10.4,-,N/A,,Unknown,180,2013-08-25 04:52:00
10:52 PM,70.0,19.0,14,29.74,-9999.0,South,11.5,-,N/A,,Unknown,180,2013-08-25 05:52:00
11:52 PM,69.1,21.0,16,29.77,-9999.0,ESE,8.1,-,N/A,,Unknown,120,2013-08-25 06:52:00